EGVP

Details ICAO EGVP
Name AAC Middle Wallop
Region United Kingdom
Timezone Europe/London (UTC+1.0)
Plans Departing 0
Arriving 1
Stats Elevation 296 ft / 90 m (AMSL)
Location 51.145606° -1.566547°
Runways 3
Magnetic Variation 0.844° W
Sunrise 2018-05-25 04:04:42 UTC / 2018-05-25 05:04:42 Local
Sunset 2018-05-25 20:04:34 UTC / 2018-05-25 21:04:34 Local
Advertisement - Login to hide

Runways

ID Width Length Bearing (true) Bearing (mag) Surface Threshold Offset Overrun Length
04 85 ft / 26 m 968 ft / 295 m 40.59° 41.43° Asphalt 0 ft / 0 m 0 ft / 0 m
08 148 ft / 45 m 3,600 ft / 1,097 m 83.98° 84.82° Grass 269 ft / 82 m 0 ft / 0 m
17 148 ft / 45 m 3,894 ft / 1,187 m 173.51° 174.35° Grass 0 ft / 0 m 0 ft / 0 m
22 85 ft / 26 m 968 ft / 295 m 220.59° 221.43° Asphalt 0 ft / 0 m 0 ft / 0 m
26 148 ft / 45 m 3,600 ft / 1,097 m 264.00° 264.84° Grass 0 ft / 0 m 0 ft / 0 m
35 148 ft / 45 m 3,894 ft / 1,187 m 353.51° 354.35° Grass 0 ft / 0 m 0 ft / 0 m

Map

Weather


0- 5 10 15 20 25 30 35+ Temperature / ° C

Clouds and Precipitation
Forecast for 2018-05-25 18:00 UTC. Updated 6 hours ago

Ground ~20,000 ft ~40,000 ft Winds

METAR

EGVP 252150Z AUTO 02004KT 7000 // FEW027/// BKN220/// 14/13 Q1019

TAF

Not found

Frequencies

Tower 118.27 MHz Middle Wallop Tower
Approach 123.30 MHz Middle Wallop Approach
Warning: Do not use this data for real-world aviation or navigation. No guarantee of current accuracy is given.